Regional Weather Roundup
Issued by NWS

Home | Current Version | Previous Version | Text Only | Print | Product List | Glossary On
Versions: 1 2 3 4 5 6 7 8 9 10 11 12 13 14 15 16 17 18 19 20 21 22 23 24 25 26 27 28 29 30 31 32 33 34 35 36 37 38 39 40 41 42 43 44 45 46 47 48 49 50
000
ASUS44 KFWD 231015
RWRTX
NORTH TEXAS HOURLY WEATHER ROUNDUP
NATIONAL WEATHER SERVICE FORT WORTH TX
500 AM CDT SAT JUL 23 2016

NOTE: "FAIR" INDICATES FEW OR NO CLOUDS BELOW 12,000 FEET WITH NO
SIGNIFICANT WEATHER AND/OR OBSTRUCTIONS TO VISIBILITY.

TXZ118-119-231100-
DALLAS/FORT WORTH METROPLEX

CITY           SKY/WX    TMP DP  RH WIND       PRES   REMARKS
DFW AIRPORT    CLEAR     83  68  60 S9        29.95F
DALLAS LOVE    CLEAR     86  69  56 S5        29.95F HX  90
FTW MEACHAM    CLEAR     84  67  56 S9        29.96S
DAL-EXECUTIVE  CLEAR     82  68  62 S7        29.96S
FTW-ALLIANCE   CLEAR     78  68  71 S3        29.96S
FTW-NAS-JRB    CLEAR     83  67  58 S10       29.96S
FTW-SPINKS     CLEAR     79  68  69 S6        29.98S
ARLINGTON      CLEAR     81  68  64 S7        29.96F
GRAND PRAIRIE  CLEAR     82  67  59 S6        29.98S
ADDISON        CLEAR     85  72  64 CALM      29.97S HX  90
MESQUITE       CLEAR     78  74  87 SE3       29.96S
LANCASTER      CLEAR     80  71  73 CALM      29.97S
$$

TXZ091>094-102>105-117-120-121-131>134-231100-
NORTH CENTRAL TEXAS

CITY           SKY/WX    TMP DP  RH WIND       PRES   REMARKS
SHRMAN/DENISON CLEAR     82  71  70 S6        29.97S
GAINESVILLE    CLEAR     76  70  80 S3        29.99R
BOWIE          CLEAR     73  69  85 CALM      29.98F
BRIDGEPORT     CLEAR     73  70  91 CALM      29.99R
DECATUR        CLEAR     81  65  58 S8        29.98S
DENTON         CLEAR     78  71  79 S3        29.96S
MCKINNEY       CLEAR     79  73  82 S5        29.95F
GREENVILLE     CLEAR     79  70  73 S3        29.96S
ROCKWALL       CLEAR     82  73  75 S8        29.95S
TERRELL        CLEAR     79  72  79 S5        29.96S
WAXAHACHIE     CLEAR     77  70  78 S3        29.98S
CLEBURNE       CLEAR     79  73  83 CALM      29.99S
GRANBURY       CLEAR     81  67  61 SE3       29.98S
$$

TXZ083>090-098>101-113>116-127>130-139>142-154-155-231100-
WESTERN NORTH TEXAS

CITY           SKY/WX    TMP DP  RH WIND       PRES   REMARKS
WICHITA FALLS  CLEAR     74  65  73 S7        29.95F
WF-KICKAPOO    CLEAR     76  65  68 S9        29.96F
VERNON         CLEAR     78  59  51 S7        29.96S
ABILENE        CLEAR     77  62  59 SE7       30.00F
ABILENE-DYESS  CLEAR     77  63  61 CALM      29.98F
CISCO          CLEAR     75  64  69 S7        30.01S
BRECKENRIDGE   CLEAR     80  63  56 S6        29.97S
GRAHAM         CLEAR     75  66  72 CALM      29.96S
MINERAL WELLS  CLEAR     75  67  76 SE8       29.96S
STEPHENVILLE   CLEAR     74  65  73 CALM      30.02S
COMANCHE       CLEAR     79  68  68 S7        30.00S
BROWNWOOD      CLEAR     75  64  69 SE3       30.00S
COLEMAN        CLEAR     76  62  62 S3        30.00F
$$

TXZ143>147-156>162-174-175-231100-
CENTRAL TEXAS

CITY           SKY/WX    TMP DP  RH WIND       PRES   REMARKS
WACO           CLEAR     80  71  74 SW9       29.96S
WACO-MCGREGOR  CLEAR     80  72  76 S6        29.97S
HILLSBORO      CLEAR     77  69  76 S3        29.98S
CORSICANA      CLEAR     80  71  74 S6        29.98R
MEXIA          CLEAR     77  71  82 S6        29.97S
HEARNE         PTCLDY    77  73  87 CALM      29.99R
CAMERON        CLEAR     79  73  82 SW9       29.96S
TEMPLE         CLEAR     79  72  79 S7        29.98S
KILLEEN        CLEAR     77  71  80 S6        29.98F
KILLEEN-SKYLRK   N/A     78  72  81 S3        29.98F
FORT HOOD      CLEAR     77  71  81 S5        29.96F
GATESVILLE     CLEAR     79  70  73 CALM      30.01S
HAMILTON       CLEAR     77  68  74 S6        30.01S
LAMPASAS       CLEAR     78  73  84 CALM      29.99S
$$

TXZ095>097-106>112-122>126-135>138-148>153-164>167-231100-
EAST TEXAS

CITY           SKY/WX    TMP DP  RH WIND       PRES   REMARKS
PARIS          CLEAR     81  64  57 CALM      29.96S
SULPHUR SPRNGS CLEAR     82  71  69 SW6       29.97S
MOUNT PLEASANT CLEAR     78  73  84 CALM      29.96S
GILMER         CLEAR     79  73  83 CALM      29.96R
MINEOLA        CLEAR     82  73  74 S7        29.97R
TYLER          PTCLDY    83  72  69 SW8       29.96S
LONGVIEW       CLEAR     78  74  87 S5        29.95R
MARSHALL       CLEAR     75  72  89 CALM      29.98R
ATHENS         CLEAR     77  72  83 CALM      29.96S
PALESTINE      CLEAR     79  74  84 CALM      29.98S
JACKSONVILLE   PTCLDY    79  73  83 S5        30.00R
HENDERSON      CLEAR     76  73  90 CALM      29.98R
CENTER         SUNNY     81  76  85 S3        29.98R
NACOGDOCHES    CLEAR    N/A N/A N/A CALM      29.96S
LUFKIN         CLEAR     76  74  93 CALM      29.97F
$$

SUPPLEMENTAL OBSERVATIONS (CENTRAL)

CITY           SKY/WX    TMP DP  RH WIND       PRES   REMARKS
DENISON DAM      N/A     84  70  61 SW8         N/A
CADDO GRASSLND   N/A     79  70  73 S1          N/A
PAT MAYSE LAKE   N/A     82  72  69 CALM        N/A
GREENVILLE       N/A     79  72  78 SW2         N/A
CEDAR HILL       N/A     82  70  65 S6          N/A
MCGREGOR         N/A     77  70  78 SW3         N/A
$$

SUPPLEMENTAL OBSERVATIONS (WEST)

CITY           SKY/WX    TMP DP  RH WIND       PRES   REMARKS
MILLERS CREEK    N/A     79  63  57 S7          N/A
LBJ GRASSLAND    N/A     79  66  65 S3          N/A
HAMBY            N/A    N/A N/A N/A S5          N/A
IVIE RESERVOIR   N/A     77  63  61 E5          N/A
COLORADO BEND    N/A     79  68  69 SW8         N/A
$$

SUPPLEMENTAL OBSERVATIONS (EAST)

CITY           SKY/WX    TMP DP  RH WIND       PRES   REMARKS
CLARKSVILLE      N/A     79  73  83 CALM        N/A
TEXARKANA        N/A     75  73  94 CALM        N/A
LINDEN           N/A     79  72  78 CALM        N/A
CADDO LAKE       N/A     73  68  83 CALM        N/A
GILMER           N/A     79  73  83 S1          N/A
HENDERSON        N/A     77  73  88 CALM        N/A
LUFKIN           N/A     77  73  88 MISG        N/A
N SABINE NF      N/A     79  75  89 MISG        N/A
S SABINE NF      N/A     75  72  88 CALM        N/A
$$

SUPPLEMENTAL OBSERVATIONS ARE A COLLECTION OF AUTOMATED INSTRUMENTS
THAT ARE MAINTAINED BY A VARIETY OF FEDERAL AND STATE AGENCIES.
CERTAIN ELEMENTS...SUCH AS HUMIDITY VALUES AND SUSTAINED WIND
SPEEDS...MAY BE APPROXIMATED.





USA.gov is the U.S. government's official web portal to all federal, state and local government web resources and services.